Location: Killam
(52.7910°N, 111.8608°W)
Time: 09:47:23
(UTC+00:00)

NOAA 16 DEB - Visible Passes

Search period start: 26 May 2024 00:00
Search period end: 05 June 2024 00:00
Orbit: 793 x 870 km, 99.0° (Epoch: 25 May)

Date Brightness Start Highest point End Pass type
(mag) Time Alt. Az. Time Alt. Az. Time Alt. Az.
26 May ? 04:40:35 10° E 04:43:56 17° NE 04:47:16 10° N visible
26 May ? 06:19:26 20° SSE 06:23:19 67° ENE 06:28:49 10° NNW visible
26 May ? 08:01:02 16° SW 08:04:04 25° W 08:08:35 10° NW visible
27 May ? 04:24:23 10° ENE 04:26:49 13° NE 04:29:16 10° NNE visible
27 May ? 06:01:47 16° SE 06:05:59 51° ENE 06:11:20 10° N visible
27 May ? 07:43:22 19° SW 07:46:29 33° W 07:51:28 10° NNW visible
28 May ? 05:44:06 13° SE 05:48:41 39° ENE 05:53:47 10° N visible
28 May ? 07:25:42 22° SSW 07:28:57 43° W 07:34:13 10° NNW visible
29 May ? 05:26:36 10° ESE 05:31:24 31° ENE 05:36:09 10° N visible
29 May ? 07:08:00 23° S 07:11:25 58° WSW 07:16:53 10° NNW visible
29 May ? 08:51:45 10° W 08:52:52 11° W 08:54:00 10° WNW visible
30 May ? 05:09:47 10° ESE 05:14:08 24° NE 05:18:27 10° N visible
30 May ? 06:50:17 23° S 06:53:55 77° WSW 06:59:27 10° NNW visible
30 May ? 08:32:03 10° WSW 08:35:06 15° W 08:38:09 10° NW visible
31 May ? 04:53:06 10° E 04:56:53 19° NE 05:00:39 10° N visible
31 May ? 06:32:33 21° SSE 06:36:26 82° ENE 06:41:57 10° NNW visible
31 May ? 08:14:09 13° SW 08:17:22 20° W 08:21:20 10° NW visible
01 Jun ? 04:36:37 10° E 04:39:40 15° NE 04:42:41 10° NNE visible
01 Jun ? 06:14:48 18° SE 06:18:59 62° ENE 06:24:23 10° N visible
01 Jun ? 07:56:24 16° SW 07:59:39 27° W 08:04:16 10° NW visible
02 Jun ? 05:57:02 14° SE 06:01:33 47° ENE 06:06:46 10° N visible
02 Jun ? 07:38:37 19° SSW 07:41:58 35° W 07:46:59 10° NNW visible
03 Jun ? 05:39:15 11° SE 05:44:08 36° ENE 05:49:04 10° N visible
03 Jun ? 07:20:50 21° SSW 07:24:20 47° W 07:29:36 10° NNW visible
04 Jun ? 05:22:06 10° ESE 05:26:44 28° ENE 05:31:18 10° N visible
04 Jun ? 07:03:02 21° S 07:06:41 63° WSW 07:12:07 10° NNW visible
04 Jun ? 08:46:12 10° WSW 08:48:02 12° W 08:49:53 10° WNW visible
